TimeICT,TemperatureF,Dew PointF,Humidity,Sea Level PressureIn,VisibilityMPH,Wind Direction,Wind SpeedMPH,Gust SpeedMPH,PrecipitationIn,Events,Conditions,WindDirDegrees,DateUTC
1:00 AM,85,67,46,29.79,6,SSE,2.3,,,,Clear,160,2013-03-01 18:00:00
4:00 AM,-9999,-9999,N/A,29.80,-9999.0,Calm,Calm,-,N/A,,Clear,0,2013-03-01 21:00:00
6:00 AM,77.0,71.6,83,29.86,5.6,Calm,Calm,-,N/A,,Unknown,0,2013-03-01 23:00:00
7:00 AM,78,69,68,29.85,5,South,2.3,,,,Mist,190,2013-03-02 00:00:00
7:00 AM,77.0,71.6,83,29.86,5.0,Calm,Calm,-,N/A,,Unknown,0,2013-03-02 00:00:00
8:00 AM,82.4,75.2,79,29.89,4.3,Calm,Calm,-,N/A,,Unknown,0,2013-03-02 01:00:00
9:00 AM,86.0,75.2,70,29.92,3.1,West,3.5,-,N/A,,Mist,280,2013-03-02 02:00:00
10:00 AM,91.4,73.4,55,29.92,5.6,WNW,4.6,-,N/A,,Unknown,300,2013-03-02 03:00:00
11:00 AM,95.0,75.2,53,29.92,5.6,Variable,3.5,15.0,N/A,,Unknown,0,2013-03-02 04:00:00
12:00 PM,98.6,71.6,42,29.89,6.2,Variable,2.3,-,N/A,,Scattered Clouds,0,2013-03-02 05:00:00
1:00 PM,99,64,23,29.82,6,SSW,4.6,,,,Partly Cloudy,200,2013-03-02 06:00:00
1:00 PM,100.4,69.8,37,29.86,6.2,SSE,4.6,-,N/A,,Scattered Clouds,160,2013-03-02 06:00:00
2:00 PM,102.2,69.8,35,29.80,6.2,Variable,3.5,-,N/A,,Scattered Clouds,0,2013-03-02 07:00:00
3:00 PM,102.2,68.0,33,29.80,6.2,Variable,4.6,-,N/A,,Scattered Clouds,0,2013-03-02 08:00:00
4:00 PM,102.2,66.2,31,29.77,6.2,SSE,5.8,-,N/A,,Partly Cloudy,150,2013-03-02 09:00:00
5:00 PM,98.6,66.2,35,29.77,6.2,ESE,3.5,-,N/A,,Partly Cloudy,120,2013-03-02 10:00:00
6:00 PM,96.8,68.0,39,29.80,6.2,Variable,2.3,-,N/A,,Mostly Cloudy,0,2013-03-02 11:00:00
7:00 PM,95,69,33,29.77,6,ENE,3.5,,,,Scattered Clouds,60,2013-03-02 12:00:00
7:00 PM,95.0,68.0,41,29.80,6.2,ENE,4.6,-,N/A,,Partly Cloudy,60,2013-03-02 12:00:00
8:00 PM,89.6,69.8,52,29.86,6.2,East,5.8,-,N/A,,Scattered Clouds,90,2013-03-02 13:00:00